www.pogodaiklimat.ru

АРХИВ ПОГОДЫ в Хантингтоне

Время (UTC), дата Ветер
(напр.,м/с)
 
Видим.   Явления Облачность Т
(С)
Тd
(С)
f
(%)
Тe
(С)
Тes
(С)
Комфортность

P
(гПа)

Po
(гПа)
Тmin
(С)
Tmax
(С)
R
(мм)
SD
(см)
00:51 27.09 С  16 км  дымка  ясно  +18.0  +16.0  88  +18  +18    1019.0  989.4  +16.7  +20.0     
01:51 27.09 С  16 км  дымка  ясно  +17.8  +15.0  84  +18  +18    1019.3  989.7  +16.7  +20.0     
02:51 27.09 С  16 км  дымка  ясно  +17.0  +15.0  88  +18  +18    1019.5  989.7  +16.7  +20.0     
03:51 27.09 штиль  16 км  дымка  ясно  +16.7  +15.0  90  +17  +17    1019.4  989.7  +16.7  +20.0     
04:51 27.09 СВ  16 км  дымка  ясно  +16.7  +15.0  90  +17  +17    1019.2  989.7  +16.7  +20.0     
05:51 27.09 штиль  16 км  дымка  ясно  +17.0  +14.0  82  +17  +17    1019.2  989.7  +15.0  +16.7     
06:51 27.09 С  16 км  дымка  10/10 0 м
[средняя] 
+16.0  +13.0  82  +16  +16    1018.8  989.1  +15.0  +16.7     
07:51 27.09 СВ  16 км    10/10 0 м
[средняя] 
+16.1  +13.3  83  +16  +16    1018.5  988.8  +15.0  +16.7     
08:51 27.09 СВ  16 км  мгла  10/10 0 м
[средняя] 
+16.0  +13.0  82  +16  +16    1018.4  988.8  +15.0  +16.7     
09:51 27.09 СВ  16 км  мгла  10/10 0 м
[средняя] 
+15.0  +13.0  88  +14  +14    1018.4  988.8  +15.0  +16.7     
10:47 27.09 СВ  16 км    10/10 0 м
[средняя] 
+15.0  +13.0  88  +14  +14    1018.5  988.8  +15.0  +16.7     
11:51 27.09 СВ  10 км    10/10 0 м
[средняя] 
+15.0  +13.0  88  +14  +14    1018.3  988.4  +15.0  +16.1  0.5   
13:51 27.09 СВ  16 км    10/10 0 м
[средняя] 
+16.1  +12.8  81  +16  +16    1017.2  987.4  +15.0  +16.1  0.5   
14:51 27.09 СВ  10 км    10/10 0 м
[средняя] 
0.0  0.0  100  -5  -5    1016.6  986.8  +15.0  +16.1  7.9   
15:35 27.09 СВ  4 км    10/10 0 м
[средняя] 
0.0  0.0  100  -3  -3    1016.3  986.5  +15.0  +16.1  7.9   
16:20 27.09 СВ  3 км    10/10 0 м
[средняя] 
+15.0  +14.0  94  +14  +14    1015.5  985.8  +15.0  +16.1  7.9   
17:51 27.09 С  8 км    10/10 0 м
[средняя] 
+16.0  +14.0  88  +16  +16    1014.7  985.1  +15.0  +15.6  6.9   
18:51 27.09 С  3 км    10/10 0 м
[средняя] 
+16.0  +14.0  88  +15  +15    1014.2  984.5  +15.0  +15.6  6.9   
19:51 27.09 С  2 км    10/10 0 м
[средняя] 
+15.0  +13.9  93  +14  +14    1014.1  984.5  +15.0  +15.6  6.9   
20:51 27.09 С  2 км    10/10 0 м
[средняя] 
0.0  0.0  100  -6  -6    1014.0  984.5  +15.0  +15.6  10.9   
21:51 27.09 С  2 км    10/10 0 м
[средняя] 
0.0  0.0  100  -6  -6    1014.6  984.8  +15.0  +15.6  10.9   
22:15 27.09 С  6 км    10/10 0 м
[средняя] 
0.0  0.0  100  -7  -7    1014.2  984.5  +15.0  +15.6  10.9   
23:51 27.09 В  8 км    10/10 0 м
[средняя] 
0.0  0.0  100  -6  -6    1014.3  984.5  +13.3  +15.0  3.6   
00:51 28.09 штиль  16 км    10/10 0 м
[средняя] 
0.0  0.0  100  -1  -1    1015.1  985.1  +13.3  +15.0  3.6   
01:51 28.09 СЗ  16 км    10/8 0 м
[средняя] 
0.0  0.0  100  -5  -5    1016.7  986.8  +13.3  +15.0  3.6   
02:51 28.09 З  16 км  дымка  10/8 0 м
[средняя] 
0.0  0.0  100  -5  -5    1016.3  986.5  +13.3  +15.0  3.6   
03:34 28.09 ЮЗ  16 км  дымка  10/8 0 м
[средняя] 
0.0  0.0  100  -5  -5    1016.9  986.8  +13.3  +15.0  3.6   
04:51 28.09 ЮЗ  16 км    8/8 0 м  0.0  0.0  100  -3  -3    1017.5  987.8  +13.3  +15.0  3.6   
05:51 28.09 ЮЗ  5 км    8/8 0 м  0.0  0.0  100  -3  -3    1018.0  988.1  +12.8  +13.9     
06:18 28.09 штиль  10 км    5/5 0 м  0.0  0.0  100  -1  -1    1017.9  988.1  +12.8  +13.9     
07:28 28.09 штиль  3 км    10/10 0 м  0.0  0.0  100  -1  -1    1018.2  988.1  +12.8  +13.9     
08:17 28.09 штиль  1 км    ?/?  0.0  0.0  100  -1  -1    1019.2  988.8  +12.8  +13.9     
09:12 28.09 штиль  2 км    ?/?  0.0  0.0  100  -1  -1    1019.9  989.7  +12.8  +13.9     
10:49 28.09 штиль  1 км    10/10 0 м  0.0  0.0  100  -1  -1    1020.7  990.7  +12.8  +13.9     
11:51 28.09 ЮЗ  400 м    ?/?  +13.0  +13.0  100  +12  +12    1021.2  991.1  +12.8  +19.4     
12:51 28.09 штиль  5 км    10/10 м  0.0  0.0  100  -1  -1    1021.5  991.4  +12.8  +19.4     
13:42 28.09 Ю  5 км  слабый дождь  10/10 м  +14.0  +12.0  88  +14  +14    1021.7  991.4  +12.8  +19.4     
14:51 28.09 Ю  8 км    10/10 м  +15.0  +13.0  88  +14  +14    1022.0  992.0  +12.8  +19.4     
15:22 28.09 нст  16 км    8/8 м  +17.0  +13.0  77  +18  +20    1021.7  991.7  +12.8  +19.4     
16:51 28.09 нст  16 км    8/8 м  +18.9  +12.8  68  +21  +23  комфорт  1021.4  991.4  +12.8  +19.4     
17:51 28.09 нст  16 км    5/5 м  +20.0  +13.0  64  +22  +28  комфорт  1020.8  990.7  +18.3  +22.2     
18:51 28.09 нст  16 км  туман  ясно  +22.0  +13.0  57  +25  +30  комфорт  1020.3  990.4  +18.3  +22.2     
19:51 28.09 ЮЗ  8 км  дымка  ясно  +21.1  +13.3  61  +23  +27  комфорт  1019.9  990.1  +18.3  +22.2     
20:51 28.09 нст  16 км  дымка  5/5 м  +22.0  +14.0  60  +25  +27  комфорт  1020.0  990.4  +18.3  +22.2     
21:51 28.09 Ю  16 км  дымка  ясно  +20.0  +14.0  68  +23  +24  комфорт  1020.2  990.4  +18.3  +22.2     
22:51 28.09 ЮЗ  16 км  дымка  ясно  +18.9  +14.4  75  +21  +21  комфорт  1020.6  990.7  +18.3  +22.2     
23:51 28.09 ЮЗ  16 км  дымка  ясно  +17.0  +15.0  88  +18  +18    1021.1  991.1  +13.3  +18.9     
00:51 29.09 С  8 км  дымка  ясно  +16.0  +14.0  88  +16  +16    1022.0  992.0  +13.3  +18.9     

 

Местоположение метеостанции Tri-State Airport: широта 38.3650 долгота -82.5550 высота над уровнем моря 252 м.

В архиве по умолчанию представлена погода в Хантингтоне за последние 1-2 суток. Обновление информации о фактической погоде в базе происходит ежечасно! Архивные данные за месяц целиком и за предыдущие месяцы Вы можете получить, выбрав интересующий диапазон дат из раскрывающегося списка и нажав кнопку "Ввод!".

Внимание! Архив погоды МЕТАР в базе сайта в настоящее время начинается c 1 января 2013 г. Нет смысла пытаться выбрать более раннюю дату.

Внимание! Время в таблицах - всемирное. Для получения местного времени необходимо прибавить поправку, которая в Хантингтоне равна -5 ч.

Ветер - указаны скорость ветра в м/с и направление, откуда дует ветер: С - северный, СВ - северо-восточный, В - восточный, ЮВ - юго-восточный, Ю - южный, ЮЗ - юго-западный, З - западный, СЗ - северо-западный.
Видимость - горизонтальная дальность видимости в метрах или километрах. При видимости от 1 до 10 км при отсутствии осадков обычно наблюдается дымка, при ухудшении видимости до 1 км и менее - туман. В сухую погоду видимость может ухудшаться дымом, пылью или мглою.
Атмосферные явления - указаны явления, наблюдавшиеся в указанный момент времени.
Облачность - указаны через наклонную черту верхняя и нижняя облачность в баллах и высота нижней границы облаков в метрах. Внимание: облачность, как и прочие метеорологические величины в США измеряются автоматическими метеостанциями. Указанные значения в баллах носят условный характер и показывают процент времени, в течение которого, в среднем, лазерный луч высотомера отражался от облаков обратно.
T - Температура воздуха - температура, измеренная на высоте 2 м над землей.
Td - Температура точки росы - температура, при понижении до которой содержащийся в воздухе водяной пар достигнет насыщения.
f - Относительная влажность воздуха - влажноcть воздуха, измеренная на высоте 2 м над землей.
Te - Эффективная температура - температура, которую ощущает одетый по сезону человек в тени. Характеристика душности погоды. При расчете учитывается влияние влажности воздуха и скорости ветра на теплоощущения человека.
Tes - Эффективная температура на солнце - температура, которую ощущает человек, с поправкой на солнечный нагрев. Характеристика знойности погоды. Зависит от высоты солнца над горизонтом, облачности и скорости ветра. Ночью, в пасмурную погоду, а также при ветре 12 м/с и более поправка равна нулю.
P - Атмосферное давление - приведенное к уровню моря атмосферное давление.
Po - Атмосферное давление - измеренное на уровне метеостанции атмосферное давление.
Tmin - Минимальная температура - минимум температуры воздуха на высоте 2 м над землей.
Tmax - Максимальная температура - максимум температуры воздуха на высоте 2 м над землей.
R - Количество осадков - Количество выпавших осадков за 3 или 6 часов, мм.
SD - Снежный покров - Высота снежного покрова, см.